TimeCST,TemperatureF,Dew PointF,Humidity,Sea Level PressureIn,VisibilityMPH,Wind Direction,Wind SpeedMPH,Gust SpeedMPH,PrecipitationIn,Events,Conditions,WindDirDegrees,DateUTC
12:15 AM,15.8,14.0,93,29.85,9.0,NE,25.3,32.2,N/A,,Overcast,40,2013-12-03 06:15:00
12:35 AM,15.8,14.0,93,29.84,8.0,NE,24.2,-,N/A,Rain,Freezing Rain,40,2013-12-03 06:35:00
12:55 AM,15.8,14.0,93,29.85,7.0,NE,21.9,27.6,N/A,Rain,Freezing Rain,40,2013-12-03 06:55:00
1:15 AM,15.8,14.0,93,29.85,5.0,NE,20.7,26.5,N/A,Rain,Freezing Rain,40,2013-12-03 07:15:00
1:35 AM,15.8,14.0,93,29.86,5.0,NE,21.9,26.5,0.01,Snow,Light Snow,40,2013-12-03 07:35:00
1:55 AM,15.8,12.2,86,29.86,5.0,NE,25.3,31.1,0.02,Rain,Freezing Rain,50,2013-12-03 07:55:00
2:15 AM,14.0,10.4,86,29.87,6.0,NE,24.2,27.6,N/A,Rain,Freezing Rain,40,2013-12-03 08:15:00
2:35 AM,12.2,8.6,85,29.88,7.0,NE,23.0,29.9,N/A,Rain,Freezing Rain,40,2013-12-03 08:35:00
2:55 AM,12.2,10.4,92,29.88,3.0,NE,26.5,32.2,0.02,Snow,Light Snow,40,2013-12-03 08:55:00
3:15 AM,12.2,8.6,85,29.89,3.0,NE,23.0,28.8,0.01,Snow,Light Snow,40,2013-12-03 09:15:00
3:35 AM,12.2,8.6,85,29.89,2.5,NNE,21.9,31.1,0.05,Snow,Light Snow,30,2013-12-03 09:35:00
3:55 AM,12.2,8.6,85,29.89,2.5,NNE,21.9,26.5,0.07,Snow,Light Snow,30,2013-12-03 09:55:00
4:15 AM,12.2,8.6,85,29.90,3.0,NNE,21.9,27.6,0.01,Snow,Light Snow,30,2013-12-03 10:15:00
4:35 AM,12.2,8.6,85,29.91,5.0,NNE,19.6,27.6,0.02,Rain,Freezing Rain,30,2013-12-03 10:35:00
4:55 AM,10.4,8.6,92,29.92,8.0,NNE,18.4,23.0,0.03,Rain,Freezing Rain,30,2013-12-03 10:55:00
5:15 AM,10.4,8.6,92,29.92,5.0,NNE,20.7,25.3,N/A,Rain,Freezing Rain,30,2013-12-03 11:15:00
5:35 AM,10.4,6.8,85,29.91,7.0,NNE,20.7,-,N/A,Rain,Freezing Rain,30,2013-12-03 11:35:00
5:55 AM,10.4,6.8,85,29.91,5.0,NNE,25.3,28.8,0.01,Rain,Freezing Rain,30,2013-12-03 11:55:00
6:15 AM,10.4,6.8,85,29.92,5.0,NNE,23.0,28.8,N/A,Rain,Freezing Rain,30,2013-12-03 12:15:00
6:35 AM,10.4,6.8,85,29.93,4.0,NNE,19.6,28.8,0.02,Rain,Freezing Rain,30,2013-12-03 12:35:00
6:55 AM,10.4,6.8,85,29.94,9.0,NNE,17.3,20.7,0.02,Rain,Freezing Rain,20,2013-12-03 12:55:00
7:15 AM,8.6,5.0,85,29.95,10.0,NNE,12.7,-,N/A,Rain,Freezing Rain,20,2013-12-03 13:15:00
7:35 AM,8.6,6.8,92,29.95,10.0,North,12.7,-,N/A,Rain,Freezing Rain,10,2013-12-03 13:35:00
7:55 AM,8.6,5.0,85,29.96,8.0,NNE,15.0,-,N/A,Rain,Freezing Rain,20,2013-12-03 13:55:00
8:15 AM,8.6,5.0,85,29.95,4.0,NNE,12.7,-,N/A,Snow,Light Snow,20,2013-12-03 14:15:00
8:35 AM,8.6,5.0,85,29.96,5.0,NNE,12.7,17.3,0.01,Snow,Light Snow,20,2013-12-03 14:35:00
8:55 AM,8.6,5.0,85,29.97,4.0,NNE,15.0,-,0.02,Rain,Freezing Rain,20,2013-12-03 14:55:00
9:15 AM,8.6,5.0,85,29.98,3.0,NNE,11.5,-,N/A,Rain,Freezing Rain,20,2013-12-03 15:15:00
9:35 AM,8.6,6.8,92,29.97,3.0,NNE,13.8,-,0.01,Rain,Freezing Rain,20,2013-12-03 15:35:00
9:55 AM,8.6,6.8,92,29.97,3.0,NNE,17.3,23.0,0.03,Rain,Freezing Rain,30,2013-12-03 15:55:00
10:15 AM,10.4,6.8,85,29.97,3.0,NNE,18.4,21.9,N/A,Rain,Freezing Rain,20,2013-12-03 16:15:00
10:35 AM,10.4,6.8,85,29.97,3.0,NNE,20.7,-,0.02,Rain,Freezing Rain,30,2013-12-03 16:35:00
10:55 AM,10.4,6.8,85,29.98,3.0,NNE,16.1,-,0.03,Snow,Light Snow,30,2013-12-03 16:55:00
11:15 AM,10.4,6.8,85,29.98,4.0,NNE,18.4,-,N/A,Rain,Freezing Rain,30,2013-12-03 17:15:00
11:35 AM,10.4,6.8,85,29.97,3.0,NE,20.7,-,0.01,Rain,Freezing Rain,40,2013-12-03 17:35:00
11:55 AM,10.4,8.6,92,29.97,3.0,NNE,16.1,-,0.03,Rain,Freezing Rain,30,2013-12-03 17:55:00
12:15 PM,10.4,6.8,85,29.97,5.0,NNE,15.0,-,N/A,Rain,Freezing Rain,30,2013-12-03 18:15:00
12:35 PM,10.4,8.6,92,29.96,4.0,NNE,13.8,-,N/A,Rain,Freezing Rain,30,2013-12-03 18:35:00
12:55 PM,12.2,8.6,85,29.96,3.0,NNE,16.1,-,0.02,Rain,Freezing Rain,30,2013-12-03 18:55:00
1:15 PM,12.2,8.6,85,29.97,4.0,NNE,13.8,-,N/A,Rain,Freezing Rain,20,2013-12-03 19:15:00
1:35 PM,12.2,8.6,85,29.97,2.5,NNE,12.7,-,0.01,Snow,Light Snow,30,2013-12-03 19:35:00
1:55 PM,12.2,8.6,85,29.98,3.0,NNE,12.7,-,0.02,Snow,Light Snow,30,2013-12-03 19:55:00
2:15 PM,12.2,8.6,85,29.98,5.0,NNE,11.5,-,N/A,Snow,Light Snow,30,2013-12-03 20:15:00
2:35 PM,12.2,8.6,85,29.99,3.0,North,10.4,-,0.01,Snow,Light Snow,360,2013-12-03 20:35:00
2:55 PM,12.2,8.6,85,29.98,1.5,North,11.5,-,0.04,Snow,Light Snow,360,2013-12-03 20:55:00
3:15 PM,12.2,8.6,85,29.99,2.0,North,11.5,-,0.02,Snow,Light Snow,10,2013-12-03 21:15:00
3:35 PM,12.2,8.6,85,29.98,3.0,North,15.0,-,0.04,Snow,Light Snow,360,2013-12-03 21:35:00
3:55 PM,10.4,8.6,92,29.98,3.0,NNE,15.0,-,0.06,Snow,Light Snow,20,2013-12-03 21:55:00
4:15 PM,10.4,8.6,92,29.98,3.0,North,12.7,-,0.01,Snow,Light Snow,360,2013-12-03 22:15:00
4:35 PM,10.4,8.6,92,29.99,5.0,North,10.4,-,0.03,Snow,Light Snow,360,2013-12-03 22:35:00
4:55 PM,10.4,6.8,85,30.00,2.5,NE,12.7,-,0.06,Snow,Light Snow,40,2013-12-03 22:55:00
5:15 PM,10.4,6.8,85,30.01,6.0,NE,11.5,-,N/A,Snow,Light Snow,40,2013-12-03 23:15:00
5:35 PM,10.4,5.0,79,30.00,7.0,NNE,15.0,-,0.01,Snow,Light Snow,30,2013-12-03 23:35:00
5:55 PM,10.4,5.0,79,30.01,7.0,NNE,16.1,-,0.02,Snow,Light Snow,20,2013-12-03 23:55:00
6:15 PM,8.6,5.0,85,30.01,7.0,North,13.8,-,N/A,Rain,Freezing Rain,10,2013-12-04 00:15:00
6:35 PM,8.6,5.0,85,30.02,7.0,North,12.7,-,0.01,Snow,Light Snow,10,2013-12-04 00:35:00
6:55 PM,8.6,5.0,85,30.03,7.0,North,15.0,-,0.02,Snow,Light Snow,360,2013-12-04 00:55:00
7:15 PM,8.6,5.0,85,30.03,8.0,North,13.8,-,N/A,Snow,Light Snow,10,2013-12-04 01:15:00
7:35 PM,8.6,5.0,85,30.02,3.0,North,13.8,-,0.03,Snow,Light Snow,10,2013-12-04 01:35:00
7:55 PM,8.6,5.0,85,30.02,4.0,North,15.0,-,0.05,Snow,Light Snow,10,2013-12-04 01:55:00
8:15 PM,8.6,5.0,85,30.02,5.0,NNE,13.8,-,N/A,Snow,Light Snow,20,2013-12-04 02:15:00
8:35 PM,8.6,5.0,85,30.01,10.0,North,15.0,-,0.01,Rain,Freezing Rain,10,2013-12-04 02:35:00
8:55 PM,8.6,5.0,85,30.01,5.0,North,15.0,-,0.02,Snow,Light Snow,10,2013-12-04 02:55:00
9:15 PM,8.6,5.0,85,30.00,5.0,North,16.1,-,N/A,Snow,Light Snow,10,2013-12-04 03:15:00
9:35 PM,8.6,5.0,85,30.02,5.0,North,12.7,-,0.02,Snow,Light Snow,10,2013-12-04 03:35:00
9:55 PM,8.6,5.0,85,30.02,5.0,North,13.8,-,0.03,Snow,Light Snow,10,2013-12-04 03:55:00
10:15 PM,8.6,5.0,85,30.01,4.0,North,12.7,-,0.01,Snow,Light Snow,10,2013-12-04 04:15:00
10:35 PM,6.8,5.0,92,29.99,1.2,North,17.3,-,0.08,Snow,Light Snow,10,2013-12-04 04:35:00
10:55 PM,6.8,5.0,92,30.01,1.0,North,12.7,-,0.20,Snow,Light Snow,10,2013-12-04 04:55:00
11:15 PM,6.8,3.2,85,30.01,1.8,North,12.7,-,0.02,Snow,Light Snow,10,2013-12-04 05:15:00
11:35 PM,6.8,3.2,85,30.00,2.0,North,16.1,-,0.06,Snow,Light Snow,360,2013-12-04 05:35:00
11:55 PM,6.8,1.4,79,30.01,2.0,North,16.1,-,0.08,Snow,Light Snow,10,2013-12-04 05:55:00